Temp
13 13 13 13 13 13 13 13 12 12 12 12 12 11 11 10 10 9 9 10 12 12 12 12 12 12 12 12 12 12 12 12 12 12 12 11 11 12 12 12 11 11
14 13 13 13 13 13 13 12 12 12 12 12 11 11 11 10 10 10 10 12 12 12 12 12 12 12 12 12 12 12 11 11 12 11 11 11 11 11 11 11 11 10
14 13 13 13 13 13 13 12 12 12 12 11 11 11 11 11 11 11 11 12 12 12 12 12 12 12 12 12 11 11 11 11 11 11 11 11 11 11 10 10 10 10
13 13 13 14 13 12 12 12 11 11 11 11 11 11 11 11 11 11 11 11 11 12 11 11 12 12 11 11 11 11 11 11 11 11 11 11 10 10 10 9 9 9
13 13 14 13 12 12 12 11 11 11 11 11 11 11 12 11 11 11 11 11 11 11 11 11 11 11 11 11 11 11 11 11 11 11 11 10 10 9 9 9 9 9
12 13 13 12 12 12 11 11 11 11 11 10 11 11 11 10 10 10 11 11 11 11 11 11 11 11 11 10 10 10 10 10 10 10 10 9 9 9 8 8 9 8
12 13 12 12 12 12 11 11 11 11 10 10 10 10 9 9 10 10 11 11 11 11 11 11 10 10 10 10 10 10 10 10 10 9 9 9 8 8 8 8 8 8
12 12 12 12 12 11 11 11 11 10 10 10 10 9 9 9 10 10 10 10 10 10 10 10 10 10 10 10 10 10 10 10 9 9 8 8 8 8 8 7 7 7
12 12 12 12 12 11 11 11 10 10 10 10 9 9 8 9 10 10 10 10 10 10 10 10 10 10 10 10 10 9 10 9 9 8 8 8 7 7 7 7 7 7
12 12 12 12 11 11 11 11 10 10 10 9 8 8 9 9 9 10 9 10 10 9 9 9 10 10 10 9 9 9 9 9 9 8 7 6 6 6 6 6 6 6
12 12 12 12 11 11 11 11 10 10 10 9 8 8 9 9 9 9 9 10 10 9 9 9 9 9 9 9 9 9 9 8 8 7 6 5 6 6 6 6 6 5
12 12 12 11 11 11 11 10 10 10 10 9 9 9 9 9 9 9 9 10 9 9 9 9 9 9 9 9 9 9 8 8 7 6 6 6 6 5 5 5 5 5
12 12 12 11 11 11 11 10 10 10 10 9 9 9 9 9 9 9 9 9 8 8 8 8 8 8 8 9 9 9 8 8 7 6 6 5 5 5 5 5 5 6
12 12 12 12 11 11 10 10 9 9 9 9 9 9 8 9 9 9 8 8 7 7 7 8 8 7 7 8 8 8 8 8 7 7 6 5 5 5 5 4 5 7
13 13 13 12 11 11 10 10 9 9 9 9 9 8 8 8 8 8 8 7 7 7 8 8 7 7 7 7 7 8 8 7 7 7 6 6 5 5 4 4 6 7
13 13 12 12 11 10 10 9 9 9 9 9 8 8 8 7 8 8 7 7 7 7 8 8 7 6 7 6 7 7 8 7 7 7 6 5 4 4 4 4 6 7
12 13 12 11 10 10 9 9 9 9 8 8 7 7 7 7 7 7 7 7 7 7 8 8 7 7 8 7 7 7 7 7 7 6 5 4 4 4 4 4 6 7
12 12 12 11 10 9 9 9 9 8 7 7 7 7 7 7 7 7 6 6 6 6 7 7 7 8 8 8 8 8 7 7 6 5 5 4 4 4 4 4 5 6
12 12 11 11 10 9 9 9 8 8 7 6 6 6 6 6 6 6 6 6 6 6 6 7 8 8 8 7 7 7 7 6 5 5 5 4 4 4 4 4 5 5
12 11 11 10 9 9 8 8 7 7 7 6 6 6 6 6 6 6 5 5 5 5 6 7 8 8 7 7 7 7 6 5 4 4 4 4 4 4 4 4 4 4
11 11 11 10 9 9 8 7 7 7 6 6 5 6 6 6 6 5 5 5 5 6 8 9 9 8 7 7 6 6 6 5 4 4 4 4 4 4 4 5 4 4
11 11 10 9 9 8 7 7 7 6 6 6 5 6 6 6 5 5 5 5 6 7 9 9 8 8 8 7 6 6 6 5 4 4 4 4 4 4 4 5 5 4
10 9 8 8 8 7 7 7 7 6 6 5 5 6 6 5 5 5 5 6 7 8 9 8 8 8 7 7 6 6 6 5 4 4 4 4 4 5 4 4 5 4
9 8 8 7 7 7 7 7 6 5 5 5 5 6 6 5 6 6 6 6 8 8 8 7 7 8 7 7 7 6 6 6 4 4 4 4 4 5 4 4 5 6
8 8 8 8 8 7 6 6 5 4 5 5 5 5 6 6 7 7 6 7 7 7 7 6 7 7 7 7 7 6 6 6 5 4 5 4 4 5 4 4 6 6
8 8 9 9 8 7 6 6 5 5 6 6 6 6 6 6 6 6 6 7 7 6 6 5 6 7 7 7 7 6 6 6 5 5 5 4 4 5 4 4 5 6
Height
1521 1522 1524 1526 1527 1529 1531 1534 1536 1537 1538 1539 1540 1541 1543 1543 1543 1543 1543 1543 1544 1545 1546 1547 1547 1548 1548 1548 1549 1549 1550 1550 1551 1552 1552 1553 1553 1553 1554 1554 1554 1554
1520 1521 1523 1524 1526 1528 1531 1533 1535 1536 1537 1538 1539 1541 1542 1542 1542 1542 1542 1543 1544 1545 1546 1546 1547 1547 1548 1548 1549 1549 1550 1551 1552 1552 1553 1553 1554 1554 1554 1554 1554 1554
1518 1520 1522 1524 1525 1528 1531 1533 1535 1536 1537 1538 1539 1540 1541 1541 1541 1541 1542 1543 1544 1545 1546 1546 1546 1547 1548 1548 1549 1550 1550 1551 1552 1553 1553 1554 1554 1554 1554 1555 1555 1555
1517 1520 1522 1523 1525 1528 1530 1533 1534 1535 1538 1539 1539 1539 1540 1540 1540 1541 1542 1543 1544 1545 1545 1546 1546 1547 1548 1548 1549 1550 1551 1552 1552 1553 1554 1554 1554 1554 1555 1555 1555 1556
1517 1519 1521 1523 1525 1527 1530 1532 1534 1535 1537 1538 1538 1539 1539 1539 1539 1540 1542 1543 1544 1544 1545 1545 1546 1547 1547 1548 1549 1550 1551 1552 1553 1553 1554 1554 1554 1555 1555 1556 1556 1556
1517 1519 1521 1523 1524 1527 1529 1531 1533 1534 1536 1537 1537 1538 1538 1538 1539 1540 1541 1542 1543 1544 1545 1545 1546 1546 1547 1548 1549 1550 1551 1552 1553 1553 1554 1554 1555 1555 1555 1556 1556 1555
1516 1518 1520 1522 1524 1526 1528 1530 1532 1533 1535 1536 1537 1537 1537 1537 1539 1540 1541 1542 1543 1544 1544 1545 1546 1546 1547 1548 1549 1550 1551 1552 1553 1553 1554 1555 1555 1555 1555 1555 1555 1556
1516 1518 1520 1522 1523 1525 1527 1529 1531 1532 1534 1535 1535 1536 1536 1537 1538 1539 1540 1541 1542 1543 1544 1545 1545 1546 1547 1548 1549 1550 1551 1552 1552 1554 1555 1555 1555 1555 1555 1555 1555 1556
1515 1516 1519 1520 1522 1524 1526 1528 1529 1531 1533 1534 1535 1535 1535 1536 1538 1539 1540 1541 1542 1543 1544 1544 1545 1546 1547 1548 1549 1551 1551 1552 1553 1554 1555 1555 1555 1556 1556 1556 1556 1556
1513 1515 1517 1519 1520 1522 1524 1526 1528 1530 1532 1533 1533 1534 1535 1536 1537 1538 1539 1540 1541 1542 1543 1544 1545 1545 1547 1548 1549 1551 1551 1552 1553 1554 1555 1555 1556 1556 1556 1556 1556 1556
1512 1513 1515 1517 1519 1521 1523 1525 1527 1529 1531 1531 1532 1533 1534 1535 1536 1537 1538 1539 1541 1542 1542 1543 1544 1545 1546 1548 1549 1550 1551 1552 1553 1554 1555 1555 1556 1556 1556 1556 1556 1556
1510 1512 1514 1516 1518 1520 1521 1524 1526 1527 1529 1530 1531 1532 1533 1534 1535 1537 1538 1539 1540 1541 1542 1543 1544 1545 1546 1547 1548 1549 1550 1552 1553 1553 1554 1555 1555 1556 1556 1556 1556 1556
1509 1511 1512 1514 1516 1518 1520 1522 1524 1526 1528 1529 1530 1531 1532 1533 1535 1536 1537 1539 1540 1540 1541 1542 1543 1545 1546 1547 1548 1549 1550 1551 1552 1553 1554 1554 1555 1556 1556 1556 1556 1556
1507 1509 1511 1513 1515 1517 1519 1521 1523 1525 1527 1528 1529 1530 1531 1533 1534 1535 1536 1538 1539 1539 1540 1542 1543 1544 1545 1546 1547 1548 1549 1550 1551 1552 1553 1554 1555 1555 1556 1556 1556 1555
1505 1507 1509 1511 1514 1516 1518 1520 1522 1524 1525 1527 1528 1529 1531 1532 1533 1534 1536 1537 1538 1538 1539 1541 1542 1543 1545 1546 1547 1547 1548 1550 1551 1552 1553 1554 1554 1555 1556 1556 1555 1555
1504 1506 1508 1510 1512 1515 1517 1519 1521 1523 1524 1526 1527 1528 1530 1531 1532 1534 1535 1536 1537 1537 1538 1540 1541 1542 1543 1544 1545 1547 1548 1549 1550 1551 1552 1553 1554 1555 1555 1555 1555 1555
1503 1505 1507 1509 1511 1514 1516 1518 1520 1522 1523 1525 1526 1527 1529 1530 1531 1533 1534 1535 1536 1537 1537 1539 1540 1540 1542 1543 1544 1546 1547 1548 1549 1551 1552 1553 1554 1555 1555 1555 1555 1554
1502 1503 1505 1508 1510 1513 1515 1517 1519 1520 1522 1524 1525 1526 1527 1529 1530 1532 1533 1535 1535 1536 1537 1538 1538 1540 1542 1543 1544 1545 1546 1547 1548 1550 1551 1553 1554 1554 1555 1555 1554 1554
1501 1502 1504 1507 1509 1512 1514 1515 1517 1519 1522 1523 1524 1525 1526 1528 1530 1531 1533 1534 1534 1535 1536 1537 1538 1539 1541 1543 1544 1545 1546 1547 1548 1549 1551 1552 1553 1554 1555 1554 1554 1554
1500 1501 1504 1506 1508 1510 1512 1514 1517 1519 1521 1522 1523 1524 1525 1526 1529 1530 1531 1533 1533 1533 1534 1535 1537 1539 1541 1542 1544 1545 1546 1546 1547 1548 1550 1551 1552 1553 1553 1553 1553 1554
1498 1500 1503 1505 1507 1509 1511 1513 1516 1517 1519 1521 1521 1522 1523 1525 1527 1529 1530 1531 1532 1531 1532 1535 1537 1538 1539 1541 1543 1544 1545 1546 1546 1548 1549 1550 1551 1552 1552 1552 1552 1553
1496 1499 1501 1503 1505 1507 1509 1512 1514 1516 1517 1519 1519 1520 1522 1524 1526 1527 1528 1529 1529 1530 1532 1534 1536 1537 1538 1540 1541 1543 1544 1545 1546 1547 1548 1549 1550 1551 1551 1551 1552 1553
1495 1497 1499 1501 1503 1506 1508 1510 1512 1514 1515 1516 1517 1518 1520 1522 1523 1525 1526 1527 1528 1530 1531 1533 1534 1535 1537 1539 1540 1542 1543 1544 1545 1547 1548 1549 1550 1550 1550 1551 1551 1551
1495 1497 1498 1499 1501 1503 1506 1508 1510 1511 1513 1514 1515 1516 1518 1519 1521 1523 1525 1526 1527 1529 1531 1532 1533 1535 1536 1537 1539 1541 1542 1543 1545 1548 1548 1549 1549 1549 1550 1550 1549 1550
1494 1495 1496 1497 1499 1501 1504 1506 1506 1508 1510 1511 1513 1515 1516 1518 1520 1522 1524 1525 1527 1528 1530 1531 1532 1533 1535 1536 1538 1540 1541 1542 1544 1547 1548 1548 1549 1549 1549 1549 1549 1549
1491 1493 1494 1496 1498 1500 1502 1503 1503 1505 1507 1509 1511 1513 1515 1517 1519 1521 1522 1524 1526 1527 1529 1530 1531 1532 1534 1535 1537 1539 1540 1540 1542 1546 1548 1548 1548 1549 1549 1548 1548 1548
Wind_Speed
18 18 17 18 20 19 20 20 17 17 16 12 11 10 8 5 4 6 7 9 12 14 13 13 11 10 10 11 12 13 13 14 14 14 14 14 13 12 11 12 13 13
18 18 17 19 20 19 21 21 19 17 15 13 12 10 7 4 4 6 8 11 14 14 13 12 11 11 12 13 14 14 15 15 15 15 15 14 13 12 12 13 13 13
19 18 19 20 19 19 21 21 19 17 15 14 12 10 7 4 4 7 10 13 14 14 13 12 12 13 14 15 15 15 16 15 15 15 14 14 13 13 13 13 13 13
19 19 21 20 19 20 21 20 18 16 15 14 12 9 6 4 5 9 13 14 15 14 13 13 13 15 16 16 16 16 16 16 15 15 14 14 14 14 14 13 13 14
20 22 23 21 21 22 21 19 18 16 16 14 11 8 4 3 7 13 16 16 15 13 13 14 15 16 17 17 17 17 17 16 16 15 14 14 14 14 14 13 13 14
22 24 24 22 23 23 21 20 18 17 16 13 10 7 4 5 11 15 16 16 15 13 14 15 17 18 18 18 17 17 17 17 16 15 14 15 15 15 15 14 13 14
24 25 24 23 24 23 22 21 18 17 16 12 8 6 5 9 14 16 16 16 15 14 15 16 18 18 18 18 18 18 18 17 16 16 15 15 15 15 15 15 13 13
26 27 26 26 26 24 23 20 19 18 15 10 8 6 7 11 15 16 16 16 15 15 15 17 18 18 19 18 18 18 18 18 17 16 15 15 15 14 15 15 13 13
28 28 28 28 27 24 22 21 20 18 14 10 7 6 8 12 16 16 16 16 15 16 17 18 19 19 19 18 18 18 18 18 17 16 16 15 14 13 13 14 13 13
28 29 29 28 26 24 23 22 20 18 13 9 8 8 10 14 16 16 17 16 16 17 18 19 20 19 19 19 18 18 17 17 17 16 15 13 12 12 12 12 12 11
29 30 29 27 25 24 24 22 20 18 13 9 8 8 11 16 17 17 17 17 17 19 19 20 20 19 20 20 19 19 18 17 16 15 14 13 13 13 12 11 11 10
28 29 27 26 25 25 24 22 20 18 14 9 7 8 12 17 19 18 18 17 18 18 18 19 20 20 20 20 20 20 19 18 17 15 14 14 14 13 12 11 10 10
27 27 26 26 26 26 25 22 20 19 15 10 8 9 14 19 19 18 18 18 18 18 18 19 20 20 20 20 19 19 19 18 17 16 15 15 14 13 12 10 10 10
27 26 25 25 25 25 24 23 21 18 15 11 9 11 17 20 19 20 19 19 19 19 18 20 20 20 19 19 19 19 19 18 17 17 16 15 14 13 11 10 10 11
28 26 25 25 24 24 24 23 22 18 15 12 11 14 19 20 20 21 20 19 20 20 20 21 21 20 19 19 19 19 19 18 17 17 16 15 13 12 11 10 10 10
27 26 26 25 25 25 24 24 22 18 14 12 13 17 20 21 21 21 20 20 20 20 22 22 22 22 21 20 19 19 20 19 18 17 16 14 12 12 10 9 10 9
26 24 25 25 26 26 24 24 22 18 13 12 15 19 21 22 22 21 21 21 20 21 22 22 23 24 24 23 21 20 20 20 19 17 15 14 12 11 10 9 9 8
25 23 23 24 26 26 24 24 22 17 13 14 18 21 22 22 22 21 21 21 20 20 22 22 23 24 23 22 21 21 22 21 19 17 15 13 11 10 9 9 8 8
24 23 23 25 26 25 24 23 20 15 14 15 18 21 23 23 22 21 21 21 20 20 20 21 23 23 22 21 20 21 22 20 17 16 14 11 11 11 10 9 8 6
24 24 24 24 24 24 23 21 17 15 16 17 17 21 24 24 23 21 21 21 20 21 23 23 22 22 22 21 20 21 22 20 16 14 13 12 12 12 12 12 9 6
24 24 24 24 24 24 22 19 16 16 18 17 17 21 25 24 23 22 21 22 23 24 25 24 22 22 23 22 22 22 22 21 17 15 14 14 15 14 14 15 14 11
25 25 23 23 24 23 21 19 18 19 19 17 18 22 24 23 22 23 24 26 27 27 25 24 23 23 23 23 24 24 23 21 18 15 13 14 15 15 13 13 13 11
23 22 20 20 21 21 21 21 21 21 20 18 20 24 25 24 25 26 27 28 28 27 25 24 24 24 23 23 24 25 25 21 16 13 11 11 14 15 12 12 14 12
21 21 21 21 22 23 23 23 23 22 20 20 21 24 25 27 29 28 25 25 26 26 24 24 24 24 24 24 24 25 25 21 14 10 11 11 13 14 10 11 15 13
21 23 24 24 25 24 24 24 22 20 19 19 20 21 24 27 28 26 24 24 26 26 25 23 23 24 24 24 25 25 25 22 16 10 11 11 12 13 11 11 12 12
25 26 26 27 27 27 27 28 25 23 22 22 22 22 24 26 26 25 26 28 27 26 25 22 21 24 25 24 25 25 25 24 18 11 11 12 12 12 11 11 11 11
Wind_Direction
198 196 194 198 200 202 198 188 178 177 176 173 175 180 189 204 188 162 158 164 168 175 183 181 171 162 156 152 148 145 143 139 135 132 129 126 124 126 127 123 118 111
205 199 191 193 194 194 191 183 175 171 172 173 177 185 188 180 182 182 173 169 172 179 181 174 163 159 157 152 148 145 141 139 137 134 131 129 130 129 124 117 113 110
209 200 190 190 189 187 184 178 170 166 171 176 178 186 197 214 232 204 181 175 178 180 175 168 162 160 157 152 148 145 143 142 139 137 137 135 131 124 120 116 113 113
201 193 187 187 183 180 177 170 165 166 176 181 179 186 208 253 240 196 183 181 180 178 172 167 164 161 156 152 149 147 144 142 139 140 140 135 128 124 120 118 117 115
192 187 184 182 176 173 170 167 169 175 180 181 181 193 223 241 202 189 185 183 180 177 172 168 166 160 154 151 150 148 145 143 142 141 138 131 127 126 124 123 121 116
188 188 183 176 171 169 170 173 178 181 179 181 188 200 209 186 185 187 186 181 177 176 173 169 164 158 153 152 151 149 146 144 142 137 133 133 133 131 128 124 118 115
189 188 181 174 172 172 175 179 181 180 178 183 189 183 167 171 182 186 184 180 176 175 174 169 163 158 155 155 153 151 147 144 140 136 137 138 137 134 128 124 118 114
189 185 179 177 176 177 180 183 182 179 179 184 182 166 157 173 185 185 181 179 175 174 173 168 163 160 158 158 156 153 149 145 141 141 145 143 138 135 130 126 123 119
187 183 179 178 177 177 181 184 182 178 180 183 173 157 162 177 185 183 179 177 176 174 172 167 165 163 161 159 156 154 150 146 146 147 146 140 134 133 130 126 124 121
186 183 178 176 177 178 181 184 182 179 184 181 160 157 175 183 185 181 179 179 177 175 172 169 168 165 161 159 156 155 152 148 148 147 143 139 138 136 132 128 126 121
185 182 179 177 178 180 183 185 182 181 187 177 156 171 189 187 183 180 182 184 179 176 174 171 169 166 162 161 159 157 154 151 151 149 148 149 149 144 138 135 132 126
181 181 179 179 181 183 184 184 181 185 190 179 170 192 194 185 182 182 183 183 179 176 175 173 170 168 166 164 162 160 157 156 156 156 155 153 148 144 142 140 138 135
176 179 180 182 184 186 186 184 183 188 190 184 189 202 193 184 183 184 181 179 178 175 175 175 171 169 168 166 165 164 160 160 161 160 157 151 148 149 146 143 147 145
177 180 182 185 187 187 187 184 185 189 189 190 201 202 190 184 185 186 180 176 179 177 177 177 173 170 170 168 168 167 164 164 165 164 161 155 153 153 150 150 156 150
180 181 183 188 190 188 185 185 188 191 190 195 204 197 186 182 188 188 179 177 181 181 181 180 174 171 171 170 171 170 167 167 169 167 163 158 154 153 153 159 161 149
178 180 184 189 190 187 185 187 192 193 194 203 203 191 183 183 188 186 181 181 181 183 185 181 176 177 176 173 173 172 170 171 171 167 160 158 157 155 157 165 162 149
178 181 185 186 186 185 185 190 196 196 198 202 195 186 183 185 187 183 183 184 181 185 188 182 181 184 182 177 175 173 174 172 169 165 160 161 162 161 162 166 160 150
183 184 185 185 184 184 187 195 199 199 193 189 187 185 184 185 184 181 182 183 182 187 188 185 188 190 185 181 179 176 174 170 168 167 163 162 164 164 168 169 163 159
187 187 186 186 184 185 192 198 200 197 189 184 185 187 186 185 182 180 183 184 183 186 189 191 193 190 184 183 184 180 173 166 166 167 163 165 171 172 174 170 166 170
187 188 188 187 187 189 195 199 196 191 188 185 185 188 190 188 183 180 183 184 184 189 193 193 192 188 185 184 184 184 173 161 161 166 167 175 178 176 178 172 167 171
184 188 190 192 195 196 197 197 191 188 187 185 185 190 192 190 185 182 184 185 190 196 195 191 189 189 189 186 183 183 175 165 164 170 175 183 182 180 183 180 174 173
187 189 190 193 196 196 195 192 189 188 187 184 187 193 193 189 185 185 190 193 197 200 195 189 191 193 192 188 183 183 181 172 167 170 177 185 186 182 183 184 180 174
189 187 185 185 188 190 190 189 187 187 186 185 190 195 192 188 188 192 197 201 202 201 195 192 194 195 194 192 186 186 186 174 163 170 179 186 190 183 180 191 188 176
184 185 185 185 187 186 187 189 186 185 187 188 192 194 193 194 198 199 200 201 202 201 198 198 198 196 196 195 190 190 188 172 159 177 187 189 195 185 182 207 204 188
185 189 192 195 195 187 185 187 184 180 185 188 191 196 200 203 205 202 200 199 200 201 200 201 202 199 198 199 194 193 190 173 159 182 196 191 196 190 189 213 213 200
195 198 199 201 198 189 189 193 194 195 198 200 199 199 201 204 202 200 201 202 201 201 200 200 206 204 201 202 199 195 193 178 162 176 203 197 195 195 195 209 215 208